Weather observations for the past three days for
Natchez, Hardy-Anders Field Natchez-Adams County Airport
| Date | Time (cdt) | Wind (kph) | Vis. (km) | Weather | Sky Cond. | Temperature (ºC) | Relative Humidity | Wind Chill (°C) | Heat Index (°C) | Pressure | Precipitation (cm) | ||||||
|---|---|---|---|---|---|---|---|---|---|---|---|---|---|---|---|---|---|
| Air | Dwpt | 6 hour | altimeter (cm) | sea level (mb) | 1 hr | 3 hr | 6 hr | ||||||||||
| Max. | Min. | ||||||||||||||||
| 06 | 03:56 | S 13 | 16.09 | Overcast | FEW017 BKN035 OVC043 | 0 | 0 | 0% | 75.84 | 0.0 | |||||||
| 06 | 02:56 | S 13 | 16.09 | Overcast | BKN026 OVC032 | 0 | 0 | 0% | 75.82 | 0.0 | |||||||
| 06 | 01:56 | S 17 G 26 | 16.09 | Mostly Cloudy | BKN014 BKN022 | 0 | 0 | 0% | 75.82 | 0.0 | |||||||
| 06 | 00:56 | S 17 | 16.09 | Mostly Cloudy | BKN016 BKN034 | 0 | 0 | 0% | 75.84 | 0.0 | |||||||
| 05 | 23:56 | S 19 G 28 | 16.09 | Overcast | OVC050 | 0 | 0 | 0% | 75.82 | 0.0 | |||||||
| 05 | 22:56 | S 17 | 16.09 | Overcast | OVC050 | 0 | 0 | 0% | 75.82 | 0.0 | |||||||
| 05 | 21:56 | S 15 | 16.09 | Fair | CLR | 0 | 0 | 0% | 75.79 | 0.0 | |||||||
| 05 | 20:56 | S 19 | 14.48 | Fair | CLR | 0 | 0 | 0% | 75.74 | 0.0 | |||||||
| 05 | 19:56 | S 15 | 16.09 | Overcast | OVC033 | 0 | 0 | 0% | 75.74 | 0.0 | |||||||
| 05 | 18:56 | S 15 | 16.09 | Overcast | BKN030 OVC040 | 0 | 0 | 0% | 75.72 | 0.0 | |||||||
| 05 | 17:56 | S 15 | 16.09 | Overcast | OVC032 | 0 | 0 | 0% | 75.72 | 0.0 | |||||||
| 05 | 16:56 | S 15 | 16.09 | Overcast | BKN030 OVC035 | 0 | 0 | 0% | 75.74 | 0.0 | |||||||
| 05 | 15:56 | S 19 | 16.09 | Overcast | OVC034 | 0 | 0 | 0% | 75.77 | 0.0 | |||||||
| 05 | 14:56 | S 17 | 16.09 | Overcast | OVC034 | 0 | 0 | 0% | 75.79 | 0.0 | |||||||
| 05 | 13:56 | S 15 G 31 | 16.09 | Overcast | BKN038 OVC045 | 0 | 0 | 0% | 75.84 | 0.0 | |||||||
| 05 | 12:56 | S 20 G 31 | 16.09 | Overcast | OVC033 | 0 | 0 | 0% | 75.87 | 0.0 | |||||||
| 05 | 11:56 | S 30 | 16.09 | Mostly Cloudy | BKN031 | 0 | 0 | 0% | 75.87 | 0.0 | |||||||
| 05 | 10:56 | S 22 G 37 | 16.09 | Overcast | SCT027 BKN038 OVC046 | 0 | 0 | 0% | 75.9 | 0.0 | |||||||
| 05 | 09:56 | S 17 | 16.09 | Overcast | OVC036 | 0 | 0 | 0% | 75.9 | 0.0 | |||||||
| 05 | 08:56 | S 19 | 16.09 | Overcast | OVC038 | 0 | 0 | 0% | 75.92 | 0.0 | |||||||
| 05 | 07:56 | S 15 | 16.09 | Overcast | OVC044 | 0 | 0 | 0% | 75.92 | 0.0 | |||||||
| 05 | 06:56 | S 11 | 16.09 | Overcast | SCT027 OVC044 | 0 | 0 | 0% | 75.9 | 0.0 | |||||||
| 05 | 05:56 | S 13 | 16.09 | Fair | CLR | 0 | 0 | 0% | 75.87 | 0.0 | |||||||
| 05 | 04:56 | SE 13 | 16.09 | Fair | CLR | 0 | 0 | 0% | 75.9 | 0.0 | |||||||
| 05 | 03:56 | S 9 | 16.09 | Fair | CLR | 0 | 0 | 0% | 75.9 | 0.0 | |||||||
| 05 | 02:56 | S 11 | 16.09 | Fair | CLR | 0 | 0 | 0% | 75.9 | 0.0 | |||||||
| 05 | 01:56 | S 9 | 16.09 | Fair | CLR | 0 | 0 | 0% | 75.95 | 0.0 | |||||||
| 05 | 00:56 | S 11 | 16.09 | Fair | CLR | 0 | 0 | 0% | 76 | 0.0 | |||||||
| 04 | 23:56 | S 11 | 16.09 | Fair | CLR | 0 | 0 | 0% | 76 | 0.0 | |||||||
| 04 | 22:56 | S 11 | 16.09 | Fair | CLR | 0 | 0 | 0% | 76 | 0.0 | |||||||
| 04 | 21:56 | S 11 | 16.09 | Fair | CLR | 0 | 0 | 0% | 75.97 | 0.0 | |||||||
| 04 | 20:56 | S 9 | 16.09 | Fair | CLR | 0 | 0 | 0% | 75.95 | 0.0 | |||||||
| 04 | 19:56 | S 7 | 16.09 | Fair | CLR | 0 | 0 | 0% | 75.92 | 0.0 | |||||||
| 04 | 18:56 | S 11 | 16.09 | Fair | CLR | 0 | 0 | 0% | 75.95 | 0.0 | |||||||
| 04 | 17:56 | S 15 G 28 | 16.09 | Fair | CLR | 0 | 0 | 0% | 76 | 0.0 | |||||||
| 04 | 16:56 | S 17 G 28 | 16.09 | Fair | CLR | 0 | 0 | 0% | 76.05 | 0.0 | |||||||
| 04 | 15:56 | S 22 G 33 | 16.09 | Fair | CLR | 0 | 0 | 0% | 76.07 | 0.0 | |||||||
| 04 | 14:56 | SW 20 G 26 | 16.09 | Fair | CLR | 0 | 0 | 0% | 76.15 | 0.0 | |||||||
| 04 | 13:56 | S 19 G 28 | 16.09 | A Few Clouds | FEW060 | 0 | 0 | 0% | 76.2 | 0.0 | |||||||
| 04 | 12:56 | SW 15 | 16.09 | A Few Clouds | FEW055 | 0 | 0 | 0% | 76.25 | 0.0 | |||||||
| 04 | 11:56 | S 11 | 16.09 | A Few Clouds | FEW050 | 0 | 0 | 0% | 76.3 | 0.0 | |||||||
| 04 | 10:56 | SW 19 G 30 | 16.09 | Fair | CLR | 0 | 0 | 0% | 76.33 | 0.0 | |||||||
| 04 | 09:56 | S 15 | 16.09 | Fair | CLR | 0 | 0 | 0% | 76.35 | 0.0 | |||||||
| 04 | 08:56 | SW 11 | 16.09 | Fair | CLR | 0 | 0 | 0% | 76.35 | 0.0 | |||||||
| 04 | 07:56 | S 7 | 16.09 | Fair | CLR | 0 | 0 | 0% | 76.35 | 0.0 | |||||||
| 04 | 06:56 | S 7 | 16.09 | Fair | CLR | 0 | 0 | 0% | 76.33 | 0.0 | |||||||
| 04 | 05:56 | Calm | 16.09 | Fair | CLR | 0 | 0 | 0% | 76.3 | 0.0 | |||||||
| 04 | 04:56 | SE 6 | 16.09 | Fair | CLR | 0 | 0 | 0% | 76.3 | 0.0 | |||||||
| 04 | 03:56 | S 6 | 16.09 | Fair | CLR | 0 | 0 | 0% | 76.3 | 0.0 | |||||||
| 04 | 02:56 | Calm | 16.09 | Fair | CLR | 0 | 0 | 0% | 76.33 | 0.0 | |||||||
| 04 | 00:56 | Calm | 16.09 | Fair | CLR | 0 | 0 | 0% | 76.38 | 0.0 | |||||||
| 03 | 23:56 | S 7 | 16.09 | Fair | CLR | 0 | 0 | 0% | 76.4 | 0.0 | |||||||
| 03 | 22:56 | Calm | 16.09 | Fair | CLR | 0 | 0 | 0% | 76.43 | 0.0 | |||||||
| 03 | 21:56 | Calm | 16.09 | Fair | CLR | 0 | 0 | 0% | 76.43 | 0.0 | |||||||
| 03 | 20:56 | S 6 | 16.09 | Fair | CLR | 0 | 0 | 0% | 76.38 | 0.0 | |||||||
| 03 | 19:56 | Calm | 16.09 | Fair | CLR | 0 | 0 | 0% | 76.33 | 0.0 | |||||||
| 03 | 18:56 | Calm | 16.09 | Fair | CLR | 0 | 0 | 0% | 76.35 | 0.0 | |||||||
| 03 | 17:56 | Calm | 16.09 | Fair | CLR | 0 | 0 | 0% | 76.38 | 0.0 | |||||||
| 03 | 16:56 | Vrbl 6 | 16.09 | A Few Clouds | FEW065 | 0 | 0 | 0% | 76.4 | 0.0 | |||||||
| 03 | 15:56 | Vrbl 7 | 16.09 | Fair | CLR | 0 | 0 | 0% | 76.48 | 0.0 | |||||||
| 03 | 14:56 | W 11 | 16.09 | Fair | CLR | 0 | 0 | 0% | 76.56 | 0.0 | |||||||
| 03 | 12:56 | SW 11 | 16.09 | Fair | CLR | 0 | 0 | 0% | 76.66 | 0.0 | |||||||
| 03 | 11:56 | W 13 | 16.09 | Fair | CLR | 0 | 0 | 0% | 76.71 | 0.0 | |||||||
| 03 | 10:56 | W 15 | 16.09 | Fair | CLR | 0 | 0 | 0% | 76.76 | 0.0 | |||||||
| 03 | 09:56 | S 9 | 16.09 | Fair | CLR | 0 | 0 | 0% | 76.76 | 0.0 | |||||||
| 03 | 08:56 | SW 7 | 16.09 | Fair | CLR | 0 | 0 | 0% | 76.73 | 0.0 | |||||||
| 03 | 07:56 | Calm | 16.09 | Fair | CLR | 0 | 0 | 0% | 76.71 | 0.0 | |||||||
| 03 | 06:56 | Calm | 16.09 | Fair | CLR | 0 | 0 | 0% | 76.63 | 0.0 | |||||||
| 03 | 05:56 | Calm | 16.09 | Fair | CLR | 0 | 0 | 0% | 76.61 | 0.0 | |||||||
| 03 | 04:56 | SE 7 | 16.09 | Fair | CLR | 0 | 0 | 0% | 76.58 | 0.0 | |||||||
| Date | Time (cdt) | Wind (kph) | Vis. (km) | Weather | Sky Cond. | Air | Dwpt | Max. | Min. | Relative Humidity | Wind Chill (°C) | Heat Index (°C) | altimeter (cm) | sea level (mb) | 1 hr | 3 hr | 6 hr |
| 6 hour | |||||||||||||||||
| Temperature (ºC) | Pressure | Precipitation (cm) | |||||||||||||||